Time,TemperatureF,DewpointF,PressureIn,WindDirection,WindDirectionDegrees,WindSpeedMPH,WindSpeedGustMPH,Humidity,HourlyPrecipIn,Conditions,Clouds,dailyrainin,SoftwareType,DateUTC
2013-03-22 00:05:00,20.8,10.7,30.05,North,0,0.0,0.0,52,0.00,NA,NA,0.01,meteo_script,2013-03-22 05:05:00,
2013-03-22 00:35:00,20.4,10.5,30.04,North,0,0.0,0.0,53,0.00,NA,NA,0.00,meteo_script,2013-03-22 05:35:00,
2013-03-22 01:05:00,19.8,10.2,30.04,North,0,0.0,0.0,54,0.00,NA,NA,0.00,meteo_script,2013-03-22 06:05:00,
2013-03-22 01:35:00,19.7,9.4,30.04,West,272,0.2,1.0,51,0.00,NA,NA,0.00,meteo_script,2013-03-22 06:35:00,
2013-03-22 02:05:00,19.9,9.2,30.05,West,274,0.5,2.0,50,0.00,NA,NA,0.00,meteo_script,2013-03-22 07:05:00,
2013-03-22 02:35:00,19.6,9.0,30.06,NNW,346,1.9,4.0,50,0.00,NA,NA,0.00,meteo_script,2013-03-22 07:35:00,
2013-03-22 03:05:00,19.3,8.9,30.05,North,0,0.0,0.0,51,0.00,NA,NA,0.00,meteo_script,2013-03-22 08:05:00,
2013-03-22 03:35:00,18.4,8.6,30.06,North,0,0.0,0.0,53,0.00,NA,NA,0.00,meteo_script,2013-03-22 08:35:00,
2013-03-22 04:05:00,17.6,8.2,30.05,North,0,0.0,0.0,54,0.00,NA,NA,0.00,meteo_script,2013-03-22 09:05:00,
2013-03-22 04:35:00,17.3,8.2,30.04,North,0,0.0,0.0,55,0.00,NA,NA,0.00,meteo_script,2013-03-22 09:35:00,
2013-03-22 05:05:00,16.9,8.1,30.05,North,0,0.0,0.0,56,0.00,NA,NA,0.00,meteo_script,2013-03-22 10:05:00,
2013-03-22 05:35:00,16.6,7.8,30.03,North,0,0.0,0.0,56,0.00,NA,NA,0.00,meteo_script,2013-03-22 10:35:00,
2013-03-22 06:05:00,16.4,7.8,30.04,North,0,0.0,0.0,56,0.00,NA,NA,0.00,meteo_script,2013-03-22 11:05:00,
2013-03-22 06:35:00,16.2,7.4,30.02,North,0,0.0,0.0,56,0.00,NA,NA,0.00,meteo_script,2013-03-22 11:35:00,
2013-03-22 07:05:00,16.3,7.7,30.04,North,0,0.0,0.0,57,0.00,NA,NA,0.00,meteo_script,2013-03-22 12:05:00,
2013-03-22 07:35:00,16.1,7.6,30.03,North,0,0.0,0.0,57,0.00,NA,NA,0.00,meteo_script,2013-03-22 12:35:00,
2013-03-22 08:05:00,16.3,7.8,30.06,North,350,0.1,1.0,57,0.00,NA,NA,0.00,meteo_script,2013-03-22 13:05:00,
2013-03-22 08:35:00,17.6,8.6,30.03,North,0,0.0,0.0,55,0.00,NA,NA,0.00,meteo_script,2013-03-22 13:35:00,
2013-03-22 09:05:00,20.1,9.9,30.04,North,357,1.2,3.0,52,0.00,NA,NA,0.00,meteo_script,2013-03-22 14:05:00,
2013-03-22 09:35:00,22.5,11.6,30.04,North,0,1.7,2.0,50,0.00,NA,NA,0.00,meteo_script,2013-03-22 14:35:00,
2013-03-22 10:05:00,24.5,12.3,30.04,North,0,0.6,2.0,46,0.00,NA,NA,0.00,meteo_script,2013-03-22 15:05:00,
2013-03-22 10:35:00,28.0,14.6,30.06,West,275,0.1,2.0,44,0.00,NA,NA,0.00,meteo_script,2013-03-22 15:35:00,
2013-03-22 11:05:00,30.8,16.0,30.05,North,0,0.0,0.0,41,0.00,NA,NA,0.00,meteo_script,2013-03-22 16:05:00,
2013-03-22 11:35:00,32.9,17.4,30.06,WNW,294,1.9,3.0,40,0.00,NA,NA,0.00,meteo_script,2013-03-22 16:35:00,
2013-03-22 12:05:00,35.0,18.5,30.06,WNW,291,1.0,3.0,38,0.00,NA,NA,0.00,meteo_script,2013-03-22 17:05:00,
2013-03-22 12:35:00,36.8,19.0,30.07,WNW,283,3.4,6.0,35,0.00,NA,NA,0.00,meteo_script,2013-03-22 17:35:00,
2013-03-22 13:05:00,38.5,19.8,30.06,WSW,247,1.3,4.0,34,0.00,NA,NA,0.00,meteo_script,2013-03-22 18:05:00,
2013-03-22 13:35:00,39.7,20.1,30.05,NE,43,1.9,3.0,32,0.00,NA,NA,0.00,meteo_script,2013-03-22 18:35:00,
2013-03-22 14:05:00,38.3,19.1,30.05,North,357,1.8,5.0,33,0.00,NA,NA,0.00,meteo_script,2013-03-22 19:05:00,
2013-03-22 14:35:00,38.7,19.5,30.04,WNW,286,3.4,6.0,33,0.00,NA,NA,0.00,meteo_script,2013-03-22 19:35:00,
2013-03-22 15:05:00,39.7,20.6,30.03,SE,132,0.7,3.0,33,0.00,NA,NA,0.00,meteo_script,2013-03-22 20:05:00,
2013-03-22 15:35:00,40.2,20.5,30.03,NNW,336,2.0,3.0,32,0.00,NA,NA,0.00,meteo_script,2013-03-22 20:35:00,
2013-03-22 16:05:00,39.9,20.3,30.03,North,349,2.2,4.0,32,0.00,NA,NA,0.00,meteo_script,2013-03-22 21:05:00,
2013-03-22 16:35:00,39.9,20.4,30.04,NNW,334,0.9,2.0,32,0.00,NA,NA,0.00,meteo_script,2013-03-22 21:35:00,
2013-03-22 17:05:00,40.7,21.3,30.03,SSW,199,2.3,4.0,33,0.00,NA,NA,0.00,meteo_script,2013-03-22 22:05:00,
2013-03-22 17:35:00,40.5,21.1,30.04,SSW,211,2.0,3.0,33,0.00,NA,NA,0.00,meteo_script,2013-03-22 22:35:00,
2013-03-22 18:05:00,40.7,21.2,30.04,SW,227,0.3,1.0,33,0.00,NA,NA,0.00,meteo_script,2013-03-22 23:05:00,
2013-03-22 18:35:00,39.6,20.7,30.05,SW,225,0.1,1.0,33,0.00,NA,NA,0.00,meteo_script,2013-03-22 23:35:00,
2013-03-22 19:05:00,38.0,20.3,30.05,SW,224,0.5,2.0,36,0.00,NA,NA,0.00,meteo_script,2013-03-23 00:05:00,
2013-03-22 19:35:00,34.8,18.4,30.05,North,0,0.0,0.0,38,0.00,NA,NA,0.00,meteo_script,2013-03-23 00:35:00,
2013-03-22 20:05:00,32.2,18.0,30.06,North,0,0.0,0.0,43,0.00,NA,NA,0.00,meteo_script,2013-03-23 01:05:00,
2013-03-22 20:35:00,30.6,17.4,30.06,SSW,197,0.1,1.0,45,0.00,NA,NA,0.00,meteo_script,2013-03-23 01:35:00,
2013-03-22 21:05:00,29.4,16.6,30.06,North,0,0.0,0.0,46,0.00,NA,NA,0.00,meteo_script,2013-03-23 02:05:00,
2013-03-22 21:35:00,28.9,16.4,30.07,North,0,0.0,0.0,47,0.00,NA,NA,0.00,meteo_script,2013-03-23 02:35:00,
2013-03-22 22:05:00,28.5,16.7,30.07,North,0,0.0,0.0,49,0.00,NA,NA,0.00,meteo_script,2013-03-23 03:05:00,
2013-03-22 22:35:00,27.8,16.4,30.08,SSW,201,0.6,2.0,50,0.00,NA,NA,0.00,meteo_script,2013-03-23 03:35:00,
2013-03-22 23:05:00,27.3,16.4,30.08,SSW,208,0.7,2.0,51,0.00,NA,NA,0.00,meteo_script,2013-03-23 04:05:00,
2013-03-22 23:35:00,27.1,16.4,30.08,SSW,209,1.4,3.0,52,0.00,NA,NA,0.00,meteo_script,2013-03-23 04:35:00,